Granada, Spain

5:43 PM CEST en Mayo 27, 2017 (GMT +0200)
Granada

Tiempo Historia de LEGR - Mayo, 2017

Change the Weather History Date:

Viernes, Mayo 19, 2017

  Actual Average Record
Temperature  
Temperatura media 65 ° F -  
Temperatura máxima 87 ° F 83 ° F 91 ° F (2000)
Temperatura mínima 43 ° F 53 ° F 43 ° F (2017)
Growing Degree Days 15 (Base 50)    
Moisture  
Punto de rocío 37 ° F    
Average Humidity 35    
Maximum Humidity 71    
Minimum Humidity 7    
Precipitación  
Precipitación 0.00 pul - - ()
Presión al nivel del mar  
Presión al nivel del mar 30.07 pul    
Viento  
Velocidad del viento 3 mph ()    
Velocidad máxima del viento 14 mph    
Max Gust Speed -    
Visibilidad 12.9 Millas    
Eventos      
Averages and records for this station are not official NWS values.
T = Trace of Precipitation, MM = Missing Value Source: Averaged Metar Reports

Daily Weather History Graph

Daily Weather History Graph

Search for Another Location

Airport or City:

Trip Planner

Search our weather history database for the weather conditions in past years. The results will help you decide how hot, cold, wet, or windy it might be!

Date:

Astronomía

May. 19, 2017 Salida Puesta
Hora real 7:03 AM CEST 9:20 PM CEST
Crepúsculo civil 6:34 AM CEST 9:49 PM CEST
Crepúsculo náutico 5:58 AM CEST 10:25 PM CEST
Crepúsculo astronómico 5:18 AM CEST 11:05 PM CEST
Luna 3:07 AM CEST (5/19) 2:19 PM CEST (5/19)
Horas de luz 15h 15m
Horas de luz
14h 16m
Cuarto menguante, 46% of the Moon is Illuminated
May 19
Cuarto menguante
May 25
Nueva
Jun 1
Cuarto creciente
Jun 9
Luna llena
Jun 17
Cuarto menguante

Hourly Weather History & Observations

Hora (CEST) Temp. Punto de rocío Humedad Presión Visibilidad Wind Dir Velocidad del viento Velocidad de ráfagas Precip Eventos Condiciones
12:00 AM 59 ° F 35 ° F 28% 30.07 pul 19 mi OSO 1.2 mph - -  
12:00 AM 60.8 ° F 35.6 ° F 39% 30.09 pul 6.2 mi Variable 1.2 mph - N/A   Desconocido
12:30 AM 59.0 ° F 35.6 ° F 42% 30.09 pul 6.2 mi OSO 3.5 mph - N/A   Desconocido
1:00 AM 55 ° F 35 ° F 34% 30.09 pul 19 mi OSO 1.2 mph - -  
1:00 AM 57.2 ° F 35.6 ° F 44% 30.09 pul 6.2 mi Variable 1.2 mph - N/A   Desconocido
1:30 AM 55.4 ° F 35.6 ° F 47% 30.09 pul 6.2 mi Oeste 4.6 mph - N/A   Desconocido
2:00 AM 55.4 ° F 35.6 ° F 47% 30.09 pul 6.2 mi Variable 2.3 mph - N/A   Desconocido
2:30 AM 55.4 ° F 35.6 ° F 47% 30.06 pul 6.2 mi Variable 2.3 mph - N/A   Desconocido
3:00 AM 53 ° F 33 ° F 34% 30.08 pul 19 mi SO 3.5 mph - -  
3:00 AM 53.6 ° F 33.8 ° F 47% 30.06 pul 6.2 mi Variable 2.3 mph - N/A   Desconocido
3:30 AM 51.8 ° F 33.8 ° F 50% 30.06 pul 6.2 mi SO 4.6 mph - N/A   Desconocido
4:00 AM 49 ° F 36 ° F 49% 30.09 pul 19 mi Norte 2.3 mph - -  
4:00 AM 50.0 ° F 35.6 ° F 58% 30.06 pul 6.2 mi Variable 1.2 mph - N/A   Desconocido
4:30 AM 48.2 ° F 35.6 ° F 62% 30.06 pul 6.2 mi Sur 3.5 mph - N/A   Desconocido
5:00 AM 47 ° F 35 ° F 53% 30.11 pul 19 mi SSE 4.6 mph - -  
5:00 AM 48.2 ° F 35.6 ° F 62% 30.06 pul 6.2 mi SSE 3.5 mph - N/A   Desconocido
5:30 AM 48.2 ° F 35.6 ° F 62% 30.06 pul 6.2 mi Variable 1.2 mph - N/A   Desconocido
6:00 AM 46 ° F 36 ° F 59% 30.12 pul 19 mi OSO 1.2 mph - -  
6:00 AM 46.4 ° F 37.4 ° F 71% 30.06 pul - Variable 1.2 mph - N/A   Despejado
6:30 AM 46.4 ° F 35.6 ° F 66% 30.09 pul - Variable 1.2 mph - N/A   Despejado
7:00 AM 44 ° F 35 ° F 62% 30.14 pul 19 mi Sur 2.3 mph - -  
7:00 AM 44.6 ° F 35.6 ° F 71% 30.09 pul - Variable 2.3 mph - N/A   Despejado
7:30 AM 48.2 ° F 37.4 ° F 66% 30.12 pul - Sin viento Sin viento - N/A   Despejado
8:00 AM 51 ° F 37 ° F 47% 30.13 pul 19 mi Sin viento Sin viento - -   Despejado
8:00 AM 50.0 ° F 39.2 ° F 66% 30.12 pul - Sin viento Sin viento - N/A   Despejado
8:30 AM 51.8 ° F 35.6 ° F 54% 30.12 pul - Sin viento Sin viento - N/A   Despejado
9:00 AM 58 ° F 36 ° F 32% 30.11 pul 19 mi NO 1.2 mph - -   Despejado
9:00 AM 55.4 ° F 37.4 ° F 51% 30.12 pul - Variable 1.2 mph - N/A   Despejado
9:30 AM 59.0 ° F 37.4 ° F 45% 30.12 pul - Sin viento Sin viento - N/A   Despejado
10:00 AM 66 ° F 34 ° F 20% 30.08 pul 18 mi Sin viento Sin viento - -  
10:00 AM 64.4 ° F 33.8 ° F 32% 30.12 pul - Sin viento Sin viento - N/A   Despejado
10:30 AM 66.2 ° F 35.6 ° F 32% 30.12 pul - Sin viento Sin viento - N/A   Despejado
11:00 AM 71 ° F 34 ° F 15% 30.06 pul 19 mi Norte 1.2 mph - -   Despejado
11:00 AM 66.2 ° F 35.6 ° F 32% 30.12 pul - Variable 1.2 mph - N/A   Despejado
11:30 AM 69.8 ° F 35.6 ° F 28% 30.12 pul - Variable 1.2 mph - N/A   Despejado
12:00 PM 74 ° F 32 ° F 12% 30.04 pul 19 mi Norte 3.5 mph - -  
12:00 PM 71.6 ° F 33.8 ° F 25% 30.12 pul - Variable 1.2 mph - N/A   Despejado
12:30 PM 73.4 ° F 35.6 ° F 25% 30.12 pul - Variable 2.3 mph - N/A   Despejado
1:00 PM 78 ° F 35 ° F 12% 30.02 pul 19 mi Norte 5.8 mph - -  
1:00 PM 75.2 ° F 35.6 ° F 24% 30.09 pul - Norte 3.5 mph - N/A   Despejado
1:30 PM 77.0 ° F 33.8 ° F 21% 30.09 pul - Variable 2.3 mph - N/A   Despejado
2:00 PM 81 ° F 37 ° F 12% 29.99 pul 19 mi ONO 5.8 mph - -   Despejado
2:00 PM 77.0 ° F 35.6 ° F 22% 30.09 pul - ONO 4.6 mph - N/A   Despejado
2:30 PM 80.6 ° F 37.4 ° F 21% 30.09 pul - Variable 3.5 mph - N/A   Despejado
3:00 PM 83 ° F 36 ° F 10% 29.97 pul 19 mi Oeste 9.2 mph - -   Despejado
3:00 PM 80.6 ° F 35.6 ° F 20% 30.06 pul - ONO 9.2 mph - N/A   Despejado
3:30 PM 82.4 ° F 33.8 ° F 17% 30.06 pul - Variable 8.1 mph - N/A   Despejado
4:00 PM 84 ° F 30 ° F 7% 29.96 pul 19 mi NNO 8.1 mph - -  
4:00 PM 82.4 ° F 30.2 ° F 15% 30.06 pul - Variable 4.6 mph - N/A   Despejado
4:30 PM 82.4 ° F 28.4 ° F 14% 30.06 pul - ONO 4.6 mph - N/A   Despejado
5:00 PM 86 ° F 33 ° F 8% 29.93 pul 19 mi ONO 4.6 mph - -   Nubes dispersas
5:00 PM 84.2 ° F 32.0 ° F 15% 30.06 pul 6.2 mi Variable 5.8 mph - N/A   Parcialmente nublado
5:30 PM 84.2 ° F 33.8 ° F 16% 30.04 pul 6.2 mi Variable 5.8 mph - N/A   Parcialmente nublado
6:00 PM 86 ° F 33 ° F 7% 29.94 pul 19 mi Oeste 9.2 mph - -  
6:00 PM 84.2 ° F 33.8 ° F 16% 30.04 pul 6.2 mi Oeste 8.1 mph - N/A   Parcialmente nublado
6:30 PM 84.2 ° F 32.0 ° F 15% 30.04 pul 6.2 mi Oeste 8.1 mph - N/A   Parcialmente nublado
7:00 PM 85 ° F 32 ° F 7% 29.94 pul 19 mi ONO 10.4 mph - -  
7:00 PM 84.2 ° F 33.8 ° F 16% 30.04 pul 6.2 mi ONO 9.2 mph - N/A   Parcialmente nublado
7:30 PM 82.4 ° F 37.4 ° F 20% 30.06 pul 6.2 mi Oeste 12.7 mph - N/A   Parcialmente nublado
8:00 PM 81 ° F 46 ° F 19% 29.96 pul 19 mi Oeste 13.8 mph - -   Despejado
8:00 PM 80.6 ° F 42.8 ° F 26% 30.06 pul - Oeste 12.7 mph - N/A   Despejado
8:30 PM 78.8 ° F 46.4 ° F 32% 30.06 pul - Oeste 12.7 mph - N/A   Despejado
9:00 PM 77.0 ° F 48.2 ° F 36% 30.06 pul - Oeste 10.4 mph - N/A   Despejado
9:30 PM 73.4 ° F 50.0 ° F 44% 30.09 pul - Oeste 9.2 mph - N/A   Despejado
10:00 PM 70 ° F 44 ° F 28% 30.04 pul 19 mi Oeste 6.9 mph - -  
10:00 PM 71.6 ° F 48.2 ° F 43% 30.09 pul - Oeste 5.8 mph - N/A   Despejado
10:30 PM 68.0 ° F 48.2 ° F 49% 30.09 pul - Variable 2.3 mph - N/A   Despejado
11:00 PM 66.2 ° F 48.2 ° F 52% 30.12 pul - Sin viento Sin viento - N/A   Despejado
11:30 PM 64.4 ° F 48.2 ° F 56% 30.12 pul 6.2 mi SO 3.5 mph - N/A   Desconocido